DW5254 Weather Reports


time (UTC)temp
C
wind
direction
speed
KPH
gust
KPH
rain 1hr
cm
rain 24hr
cm
rain mn
cm
humidity
%
barometer
mb
20260906113003 21 26 1.6 9.7 0.00 0.10 0.00 94 1014.0
20260906111503 21 32 1.6 8.0 0.00 0.10 0.00 94 1013.6
20260906104600 21 59 0.0 6.4 0.00 0.10 0.00 93 1013.7
20260906103059 21 20 3.2 9.7 0.00 0.10 0.00 93 1013.7
20260906101603 21 36 3.2 11.3 0.00 0.10 0.00 93 1013.5
20260906100056 21 37 4.8 14.5 0.00 0.10 0.00 92 1013.6
20260906094556 21 45 6.4 14.5 0.00 0.10 0.00 93 1013.6
20260906093055 21 39 4.8 9.7 0.00 0.10 0.00 93 1013.6
20260906091555 21 19 3.2 12.9 0.00 0.10 0.00 94 1013.6
20260906090054 21 32 3.2 11.3 0.00 0.10 0.00 95 1013.3
20260906084553 21 52 3.2 12.9 0.00 0.10 0.00 95 1013.3
20260906083054 21 37 4.8 9.7 0.00 0.10 0.00 95 1013.3
20260906081555 21 29 4.8 11.3 0.00 0.10 0.00 94 1013.2
20260906080051 21 35 6.4 12.9 0.00 0.10 0.00 94 1013.2
20260906074552 21 51 4.8 12.9 0.00 0.10 0.00 93 1013.2
20260906073048 21 27 3.2 8.0 0.00 0.10 0.00 93 1013.2
20260906071647 21 28 1.6 11.3 0.00 0.10 0.00 92 1013.2
20260906070045 21 32 6.4 11.3 0.00 0.10 0.00 92 1013.1
20260906064544 21 43 3.2 11.3 0.00 0.10 0.00 92 1013.2
20260906063042 21 41 3.2 11.3 0.00 0.10 0.00 91 1013.3
20260906061540 22 44 3.2 12.9 0.00 0.10 0.00 91 1013.5
20260906060053 22 30 1.6 9.7 0.00 0.10 0.00 91 1013.3
20260906054535 22 37 3.2 6.4 0.00 0.10 0.00 91 1013.3
20260906053036 22 26 1.6 6.4 0.00 0.10 0.00 90 1013.4
20260906051531 23 40 1.6 9.7 0.00 0.10 0.00 90 1013.3
20260906050027 23 38 0.0 8.0 0.00 0.10 0.00 88 1013.2
20260906044528 23 28 3.2 8.0 0.00 0.10 0.00 87 1013.1
20260906043027 24 25 0.0 4.8 0.00 0.10 0.00 87 1013.0
20260906041530 25 22 0.0 3.2 0.00 0.10 0.00 86 1013.0
20260906040033 25 51 0.0 6.4 0.00 0.10 0.00 84 1012.6
20260906034529 25 59 3.2 11.3 0.00 0.10 0.00 83 1012.6
20260906033023 26 39 4.8 12.9 0.00 0.10 0.00 82 1012.5
20260906031537 26 54 4.8 17.7 0.00 0.10 0.00 82 1012.3
20260906030022 26 61 6.4 16.1 0.00 0.10 0.00 82 1012.3
20260906024521 27 26 6.4 19.3 0.00 0.10 0.00 83 1012.2
20260906023021 27 37 11.3 20.9 0.00 0.10 0.00 82 1012.0
20260906021522 27 37 3.2 9.7 0.00 0.10 0.00 83 1011.4
20260906020020 27 44 0.0 1.6 0.00 0.10 0.00 83 1011.2
20260906014525 27 44 0.0 3.2 0.00 0.10 0.00 82 1011.0
20260906013019 28 16 0.0 0.0 0.00 0.10 0.00 81 1011.1
20260906011519 28 16 0.0 3.2 0.00 0.10 0.00 80 1010.9
20260906010018 28 16 0.0 3.2 0.00 0.10 0.00 79 1010.6
20260906004518 29 20 1.6 4.8 0.00 0.10 0.00 77 1010.4
20260906003017 29 1 0.0 3.2 0.00 0.10 0.00 76 1010.4
20260906001517 30 1 0.0 4.8 0.00 0.10 0.00 73 1010.5
20260906000016 31 354 0.0 6.4 0.00 0.10 0.00 72 1010.6
20260905234515 31 6 0.0 4.8 0.00 0.10 0.00 70 1010.6
20260905233018 32 350 1.6 8.0 0.00 0.10 0.00 68 1010.4
20260905231514 33 343 1.6 6.4 0.00 0.10 0.00 67 1010.4
20260905230014 33 18 3.2 9.7 0.00 0.10 0.00 65 1010.2
20260905224514 33 345 4.8 12.9 0.00 0.10 0.00 64 1010.1
20260905223012 34 18 4.8 9.7 0.00 0.10 0.00 63 1010.1
20260905221512 35 346 3.2 8.0 0.00 0.10 0.00 60 1010.0
20260905220014 35 339 3.2 9.7 0.00 0.10 0.00 58 1010.1
20260905214509 36 9 1.6 6.4 0.00 0.10 0.00 56 1010.2
20260905203058 32 263 0.0 4.8 0.00 0.10 0.10 67 1010.8
20260905201653 31 175 1.6 6.4 0.00 0.10 0.10 68 1010.9
20260905200113 30 118 3.2 11.3 0.00 0.10 0.10 68 1011.1
20260905194551 30 73 1.6 11.3 0.05 0.10 0.10 71 1011.1
20260905193049 29 126 4.8 17.7 0.10 0.10 0.10 72 1011.4
20260905191549 26 99 0.0 8.0 0.10 0.10 0.10 87 1011.6
20260905190053 26 37 3.2 8.0 0.10 0.10 0.10 84 1011.8
20260905184551 28 338 12.9 29.0 0.05 0.05 0.05 71 1012.0
20260905183047 35 342 1.6 8.0 0.00 0.00 0.00 56 1011.4
20260905181545 36 350 8.0 14.5 0.00 0.00 0.00 55 1011.4
20260905180105 36 312 0.0 9.7 0.00 0.00 0.00 54 1011.5
20260905174541 36 340 4.8 12.9 0.00 0.00 0.00 54 1011.7
20260905173059 36 334 8.0 16.1 0.00 0.00 0.00 55 1011.9
20260905171550 35 343 0.0 11.3 0.00 0.00 0.00 56 1012.0
20260905170038 35 324 3.2 8.0 0.00 0.00 0.00 56 1012.1
20260905164536 35 323 1.6 12.9 0.00 0.00 0.00 56 1012.4
20260905163033 35 274 3.2 11.3 0.00 0.00 0.00 58 1012.4
20260905161530 34 324 3.2 9.7 0.00 0.00 0.00 58 1012.4
20260905160047 34 298 4.8 14.5 0.00 0.00 0.00 60 1012.4
20260905154527 33 325 6.4 16.1 0.00 0.00 0.00 61 1012.4
20260905153027 33 323 6.4 16.1 0.00 0.00 0.00 62 1012.4
20260905151522 33 316 3.2 11.3 0.00 0.00 0.00 64 1012.5
20260905150018 32 314 8.0 14.5 0.00 0.00 0.00 64 1012.6
20260905144524 32 333 3.2 9.7 0.00 0.00 0.00 66 1012.6
20260905143013 31 314 1.6 6.4 0.00 0.00 0.00 68 1012.4
20260905141512 31 319 1.6 6.4 0.00 0.00 0.00 68 1012.5
20260905140014 30 333 1.6 4.8 0.00 0.00 0.00 71 1012.6
20260905134503 29 309 4.8 6.4 0.00 0.00 0.00 72 1012.8
20260905133007 29 320 1.6 4.8 0.00 0.00 0.00 70 1012.8
20260905131559 28 68 0.0 0.0 0.00 0.00 0.00 76 1012.9
20260905130055 26 68 0.0 0.0 0.00 0.00 0.00 82 1012.9
20260905124555 24 68 0.0 0.0 0.00 0.00 0.00 87 1012.8
20260905123051 24 67 0.0 0.0 0.00 0.00 0.00 87 1012.8
20260905121551 24 68 0.0 0.0 0.00 0.00 0.00 87 1012.7
20260905120058 23 67 0.0 0.0 0.00 0.00 0.00 88 1012.6
20260905114559 23 68 0.0 0.0 0.00 0.00 0.00 89 1012.5